Home > Weather > Kolkata > Past weeks

Flag for India Past Weather in Kolkata, West Bengal, India — Yesterday and Last 2 Weeks

Now
86 °F

Haze.


Feels Like: 102 °F
Forecast: 83 / 93 °F
Wind: 5 mph from East

Location: Calcutta / Dum Dum

Current Time: Jun 26, 2016 at 10:47:36 PM

Latest Report: Jun 26, 2016 at 10:00 PM


Visibility: 2 mi

Pressure: 29.59 "Hg

Humidity: 84%

Dew Point: 81 °F

Location of KolkataLocation

Past Weather in Kolkata — Graph

°F

Kolkata Temperature Yesterday

Maximum temperature yesterday: 97 °F (at 11:30 AM)
Minimum temperature yesterday: 84 °F (at 12:00 AM)
Average temperature yesterday: 90 °F

High & Low Weather Summary for the Past Weeks

 TemperatureHumidityPressure
High97 °F (Jun 21, 12:00 PM)94% (Jun 13, 4:00 AM)29.71 "Hg (Jun 13, 4:00 AM)
Low77 °F (Jun 13, 6:30 AM)50% (Jun 15, 1:30 PM)29.42 "Hg (Jun 15, 4:00 PM)
Average87 °F78%29.58 "Hg
* Reported Jun 11 9:30 PM — Jun 26 9:30 PM, Kolkata, Weather by CustomWeather, © 2016

Note: Actual official high and low records may vary slightly from our data, if they occured in-between our weather recording intervals... More about our weather records

Advertising

Kolkata Weather History for the Previous 24 Hours

Scroll right to see more
 ConditionsComfort  
Time TempWeatherWind HumidityBarometerVisibility
9:30 PM
Sun, Jun 26
86 °FHaze.3 mph84%29.59 "Hg2 mi
9:00 PM86 °FHaze.5 mph84%29.62 "Hg2 mi
8:30 PM86 °FHaze.5 mph79%29.59 "Hg2 mi
8:00 PM86 °FHaze.5 mph79%29.59 "Hg2 mi
7:30 PM86 °FPassing clouds.5 mph75%29.59 "Hg2 mi
7:00 PM86 °FPassing clouds.6 mph75%29.56 "Hg2 mi
6:30 PM86 °FScattered clouds.6 mph75%29.56 "Hg2 mi
6:00 PM88 °FScattered clouds.6 mph70%29.56 "Hg2 mi
5:30 PM88 °FScattered clouds.8 mph70%29.53 "Hg2 mi
5:00 PM88 °FScattered clouds.12 mph70%29.53 "Hg2 mi
4:30 PM88 °FScattered clouds.13 mph70%29.53 "Hg2 mi
4:00 PM88 °FScattered clouds.15 mph70%29.53 "Hg2 mi
3:30 PM88 °FScattered clouds.14 mph70%29.53 "Hg2 mi
3:00 PM90 °FScattered clouds.17 mph67%29.56 "Hg2 mi
2:30 PM91 °FScattered clouds.17 mph59%29.56 "Hg2 mi
2:00 PM95 °FScattered clouds.9 mph53%29.56 "Hg3 mi
1:30 PM95 °FScattered clouds.9 mph50%29.56 "Hg3 mi
1:00 PM95 °FScattered clouds.7 mph53%29.59 "Hg3 mi
12:30 PM95 °FScattered clouds.8 mph56%29.59 "Hg2 mi
12:00 PM93 °FBroken clouds.7 mph59%29.59 "Hg2 mi
11:30 AM93 °FBroken clouds.8 mph59%29.62 "Hg2 mi
11:00 AM93 °FBroken clouds.10 mph59%29.62 "Hg2 mi
10:30 AM93 °FBroken clouds.8 mph59%29.65 "Hg2 mi
10:00 AM91 °FScattered clouds.8 mph63%29.65 "Hg2 mi
9:30 AM91 °FScattered clouds.7 mph63%29.65 "Hg2 mi
9:00 AM90 °FScattered clouds.6 mph79%29.65 "Hg2 mi
8:30 AM90 °FScattered clouds.5 mph79%29.65 "Hg2 mi
8:00 AM90 °FScattered clouds.6 mph79%29.65 "Hg2 mi
7:30 AM90 °FScattered clouds.No wind79%29.65 "Hg2 mi
7:00 AM88 °FScattered clouds.No wind84%29.65 "Hg2 mi
6:30 AM86 °FScattered clouds.No wind84%29.65 "Hg2 mi
6:00 AM86 °FScattered clouds.No wind84%29.65 "Hg2 mi
5:30 AM84 °FScattered clouds.No wind89%29.62 "Hg2 mi
5:00 AM84 °FPassing clouds.No wind89%29.62 "Hg2 mi
4:30 AM84 °FPassing clouds.No wind89%29.59 "Hg2 mi
4:00 AM84 °FPassing clouds.No wind89%29.59 "Hg2 mi
3:30 AM84 °FPassing clouds.No wind89%29.59 "Hg2 mi
3:00 AM86 °FPassing clouds.No wind84%29.59 "Hg2 mi
2:30 AM86 °FPassing clouds.5 mph84%29.62 "Hg2 mi
2:00 AM86 °FPassing clouds.No wind84%29.62 "Hg2 mi
1:30 AM86 °FPassing clouds.No wind84%29.62 "Hg2 mi
1:00 AM86 °FPassing clouds.3 mph84%29.62 "Hg2 mi
12:30 AM86 °FPassing clouds.3 mph84%29.62 "Hg2 mi
12:00 AM86 °FPassing clouds.5 mph84%29.65 "Hg2 mi
11:30 PM
Sat, Jun 25
86 °FHaze.5 mph79%29.65 "Hg2 mi
11:00 PM88 °FHaze.7 mph75%29.65 "Hg2 mi
10:30 PM88 °FHaze.9 mph75%29.65 "Hg2 mi
10:00 PM88 °FHaze.10 mph75%29.65 "Hg2 mi
Weather by CustomWeather, © 2016

See weather overviewHow to use our weather pages